Total_Precipitation_Accumulation
0.00 0.00 0.00 0.00 0.00 0.00 0.00 0.00 0.00 0.00 0.00 0.00 0.00 0.00 0.00 0.00 0.00 0.00 0.00 0.00 0.00 0.00 0.00 0.00 0.00 0.00 0.00 0.00 0.01 0.03 0.22 0.44 0.23 0.21 0.16 0.19 0.19 0.19 0.18 0.22 0.36 0.49 0.37 0.12
0.02 0.01 0.00 0.00 0.00 0.00 0.00 0.00 0.00 0.00 0.00 0.00 0.00 0.00 0.00 0.00 0.00 0.00 0.00 0.00 0.00 0.00 0.00 0.00 0.00 0.00 0.00 0.00 0.00 0.01 0.16 0.28 0.32 0.26 0.17 0.10 0.14 0.23 0.15 0.12 0.18 0.25 0.19 0.14
0.02 0.00 0.00 0.01 0.00 0.00 0.00 0.00 0.00 0.00 0.00 0.00 0.00 0.00 0.00 0.00 0.00 0.00 0.00 0.00 0.00 0.00 0.00 0.00 0.00 0.00 0.00 0.00 0.00 0.01 0.03 0.07 0.13 0.27 0.24 0.21 0.20 0.21 0.28 0.18 0.16 0.21 0.12 0.09
0.07 0.00 0.02 0.00 0.00 0.00 0.00 0.00 0.00 0.00 0.00 0.00 0.00 0.00 0.00 0.00 0.00 0.00 0.00 0.00 0.00 0.00 0.00 0.00 0.00 0.00 0.00 0.00 0.00 0.00 0.02 0.02 0.01 0.05 0.08 0.12 0.14 0.09 0.04 0.05 0.07 0.23 0.14 0.14
0.08 0.03 0.04 0.02 0.00 0.00 0.00 0.00 0.00 0.00 0.00 0.00 0.00 0.00 0.00 0.00 0.00 0.00 0.00 0.00 0.00 0.00 0.00 0.00 0.00 0.00 0.00 0.00 0.00 0.00 0.01 0.02 0.01 0.01 0.00 0.01 0.04 0.05 0.02 0.02 0.03 0.12 0.24 0.12
0.00 0.02 0.06 0.03 0.00 0.00 0.00 0.02 0.00 0.00 0.00 0.01 0.00 0.00 0.00 0.00 0.00 0.00 0.00 0.00 0.00 0.00 0.00 0.00 0.00 0.00 0.00 0.00 0.00 0.00 0.00 0.01 0.01 0.01 0.00 0.00 0.00 0.02 0.03 0.02 0.02 0.02 0.10 0.14
0.00 0.00 0.00 0.00 0.00 0.00 0.01 0.06 0.07 0.05 0.02 0.01 0.00 0.00 0.00 0.00 0.00 0.00 0.00 0.00 0.00 0.00 0.00 0.00 0.00 0.00 0.00 0.00 0.00 0.00 0.00 0.00 0.01 0.01 0.00 0.00 0.00 0.00 0.00 0.00 0.01 0.00 0.00 0.01
0.02 0.02 0.00 0.00 0.00 0.00 0.00 0.03 0.09 0.07 0.02 0.00 0.00 0.00 0.00 0.00 0.00 0.00 0.00 0.00 0.00 0.00 0.00 0.00 0.00 0.00 0.00 0.00 0.00 0.00 0.00 0.00 0.00 0.01 0.01 0.00 0.00 0.00 0.00 0.00 0.00 0.00 0.00 0.00
0.00 0.00 0.00 0.00 0.00 0.02 0.06 0.05 0.03 0.18 0.06 0.02 0.00 0.00 0.00 0.00 0.00 0.00 0.00 0.00 0.00 0.00 0.00 0.00 0.00 0.00 0.00 0.00 0.00 0.00 0.00 0.00 0.00 0.00 0.00 0.01 0.00 0.00 0.00 0.00 0.00 0.00 0.00 0.00
0.00 0.00 0.00 0.00 0.00 0.00 0.02 0.04 0.19 0.33 0.15 0.05 0.00 0.01 0.00 0.00 0.00 0.00 0.00 0.00 0.00 0.00 0.00 0.00 0.00 0.00 0.00 0.00 0.01 0.02 0.01 0.00 0.00 0.00 0.00 0.00 0.00 0.00 0.00 0.00 0.00 0.00 0.00 0.00
0.00 0.00 0.00 0.00 0.00 0.00 0.02 0.15 0.18 0.11 0.03 0.06 0.05 0.09 0.01 0.01 0.00 0.00 0.00 0.00 0.00 0.00 0.00 0.00 0.00 0.00 0.00 0.00 0.01 0.02 0.05 0.03 0.01 0.00 0.00 0.00 0.00 0.01 0.01 0.00 0.00 0.00 0.00 0.01
0.01 0.00 0.00 0.00 0.00 0.01 0.00 0.01 0.12 0.27 0.14 0.02 0.06 0.18 0.08 0.05 0.03 0.00 0.00 0.00 0.00 0.00 0.00 0.00 0.00 0.00 0.00 0.00 0.00 0.00 0.02 0.00 0.01 0.04 0.03 0.03 0.01 0.00 0.01 0.00 0.00 0.00 0.01 0.01
0.01 0.00 0.00 0.02 0.05 0.01 0.01 0.00 0.04 0.10 0.29 0.19 0.14 0.14 0.29 0.14 0.05 0.01 0.00 0.01 0.00 0.00 0.00 0.00 0.00 0.01 0.00 0.02 0.03 0.02 0.01 0.01 0.01 0.04 0.03 0.05 0.06 0.05 0.01 0.00 0.00 0.00 0.01 0.02
0.01 0.02 0.01 0.01 0.04 0.07 0.04 0.02 0.05 0.16 0.37 0.14 0.08 0.05 0.49 0.45 0.23 0.06 0.00 0.00 0.02 0.01 0.01 0.02 0.05 0.11 0.17 0.19 0.14 0.08 0.05 0.05 0.03 0.01 0.01 0.01 0.02 0.06 0.08 0.06 0.03 0.03 0.02 0.02
0.01 0.05 0.04 0.02 0.00 0.01 0.03 0.04 0.06 0.18 0.14 0.15 0.04 0.04 0.17 0.44 0.55 0.31 0.06 0.00 0.00 0.01 0.02 0.05 0.07 0.09 0.17 0.27 0.27 0.21 0.14 0.08 0.06 0.03 0.03 0.04 0.03 0.05 0.05 0.07 0.11 0.11 0.07 0.07
0.00 0.04 0.07 0.02 0.00 0.00 0.00 0.02 0.04 0.06 0.07 0.09 0.06 0.07 0.14 0.31 0.35 0.51 0.21 0.05 0.01 0.00 0.00 0.00 0.00 0.01 0.01 0.03 0.08 0.08 0.09 0.10 0.08 0.08 0.04 0.03 0.02 0.03 0.05 0.04 0.06 0.07 0.09 0.12
0.01 0.00 0.06 0.11 0.02 0.00 0.00 0.00 0.01 0.04 0.08 0.08 0.12 0.11 0.12 0.26 0.34 0.26 0.32 0.16 0.03 0.01 0.00 0.00 0.00 0.00 0.00 0.00 0.00 0.00 0.00 0.00 0.01 0.04 0.06 0.06 0.05 0.03 0.02 0.06 0.07 0.07 0.12 0.15
0.01 0.01 0.05 0.06 0.05 0.05 0.00 0.00 0.00 0.01 0.06 0.12 0.10 0.12 0.21 0.20 0.29 0.11 0.15 0.22 0.14 0.03 0.00 0.00 0.00 0.00 0.00 0.00 0.00 0.00 0.00 0.00 0.00 0.00 0.00 0.01 0.05 0.05 0.02 0.02 0.06 0.10 0.13 0.12
0.00 0.01 0.07 0.06 0.07 0.03 0.00 0.00 0.01 0.04 0.11 0.12 0.12 0.28 0.31 0.11 0.13 0.10 0.10 0.08 0.06 0.05 0.02 0.00 0.00 0.00 0.00 0.00 0.00 0.00 0.00 0.00 0.00 0.00 0.00 0.00 0.01 0.04 0.10 0.07 0.05 0.06 0.12 0.15
0.00 0.01 0.05 0.06 0.10 0.04 0.00 0.00 0.00 0.03 0.16 0.13 0.07 0.15 0.17 0.14 0.10 0.17 0.17 0.05 0.00 0.00 0.00 0.00 0.00 0.00 0.00 0.00 0.00 0.00 0.00 0.00 0.00 0.00 0.00 0.01 0.03 0.02 0.05 0.09 0.09 0.13 0.14 0.15
0.03 0.03 0.04 0.05 0.08 0.01 0.00 0.00 0.00 0.09 0.17 0.05 0.08 0.05 0.06 0.04 0.08 0.13 0.11 0.02 0.00 0.00 0.00 0.00 0.00 0.00 0.00 0.00 0.00 0.00 0.00 0.00 0.00 0.00 0.01 0.03 0.07 0.04 0.05 0.07 0.07 0.10 0.16 0.17
0.05 0.04 0.04 0.04 0.06 0.02 0.00 0.01 0.06 0.10 0.06 0.07 0.09 0.06 0.05 0.11 0.07 0.02 0.00 0.00 0.00 0.00 0.00 0.00 0.00 0.00 0.00 0.00 0.00 0.00 0.00 0.00 0.02 0.04 0.06 0.04 0.06 0.06 0.06 0.08 0.12 0.12 0.11 0.12
0.32 0.09 0.04 0.01 0.01 0.09 0.07 0.06 0.04 0.03 0.08 0.21 0.19 0.32 0.12 0.10 0.10 0.07 0.00 0.00 0.00 0.00 0.00 0.00 0.00 0.00 0.00 0.00 0.00 0.01 0.01 0.03 0.05 0.04 0.03 0.06 0.04 0.07 0.09 0.12 0.15 0.15 0.16 0.19
0.16 0.09 0.20 0.15 0.05 0.20 0.31 0.08 0.03 0.01 0.02 0.11 0.38 0.27 0.23 0.09 0.03 0.01 0.00 0.00 0.00 0.00 0.00 0.00 0.00 0.00 0.03 0.01 0.02 0.06 0.09 0.11 0.12 0.14 0.14 0.11 0.11 0.13 0.09 0.09 0.11 0.12 0.17 0.26
0.48 0.23 0.16 0.23 0.49 0.36 0.21 0.08 0.09 0.10 0.02 0.01 0.01 0.01 0.00 0.00 0.00 0.00 0.01 0.01 0.01 0.01 0.01 0.01 0.01 0.01 0.05 0.04 0.07 0.10 0.09 0.09 0.10 0.11 0.12 0.15 0.17 0.17 0.19 0.24 0.29 0.28 0.41 0.45
0.72 0.67 0.33 0.42 1.12 0.89 0.42 0.16 0.25 0.27 0.12 0.03 0.02 0.01 0.01 0.00 0.00 0.02 0.03 0.03 0.04 0.04 0.04 0.02 0.02 0.03 0.08 0.12 0.18 0.25 0.27 0.28 0.31 0.34 0.34 0.34 0.32 0.38 0.43 0.47 0.55 0.66 0.71 0.72